www.pogodaiklimat.ru

Погода и климат >> Архив погоды >> Россия >> Мордовия >> Инсар


ПОГОДА в Инсаре

  • Прогноз погоды в Инсаре
  • Монитор погоды в Инсаре

АРХИВ ПОГОДЫ в Инсаре

Время (UTC), дата Ветер
(напр.,м/с)
 
Видим.   Явления Облачность Т
(С)
Тd
(С)
f
(%)
Тe
(С)
Тes
(С)
Комфортность P
(гПа)
Po
(гПа)
Тmin
(С)
Tmax
(С)
R
(мм)
R24
(мм)
S
(см)
06 15.04 СВ 4-6
{9}
50 км 4/0
[Ac trans Ci fib]
+6.7 -5.0 43 +4 +7 1024.0 1000.2 +2.5
09 15.04 СВ 5-10
{10}
50 км 3/0
[Ci fib]
+10.6 -7.4 27 +8 +14 1024.1 1000.7
12 15.04 СВ 4-7
{10}
50 км 3/0
[Ci fib]
+12.9 -8.2 22 +12 +16 1023.2 999.9
15 15.04 СВ 3-5
{9}
50 км 3/0
[Ci fib]
+11.2 -11.7 19 +10 +11 1022.7 999.4 +13.2
18 15.04 С 3-5
{6}
4000 м ясно +6.4 -11.6 26 +4 +4 1024.1 1000.3
21 15.04 СВ 1-2
{7}
4000 м ясно +3.4 -12.1 31 +3 +3 1024.7 1000.7
00 16.04 СЗ 1-1
{2}
4000 м ясно +0.2 -10.1 46 -1 -1 1024.7 1000.4
03 16.04 СЗ 1-1
{2}
20 км ясно -2.2 -8.5 62 -4 -3 1024.2 999.6 -3.4
06 16.04 СЗ 2-3
{4}
20 км 8/0
[Ci fib]
+7.2 -7.1 35 +6 +12 1023.4 999.7
09 16.04 С 3-6
{8}
20 км 6/0
[Ci fib]
+11.5 -6.4 28 +10 +19 1022.1 998.8
12 16.04 С 2-4
{8}
20 км 4/0
[Ci fib]
+13.9 -4.7 27 +14 +20 1020.4 997.3
15 16.04 СВ 6-9
{11}
20 км 4/0
[Ac trans Ci fib]
+12.9 -4.1 30 +11 +11 1020.1 997.0 +14.5
18 16.04 СВ 3-5
{11}
4000 м 3/0
[Ci fib]
+6.2 -2.7 53 +4 +4 1024.2 1000.4
21 16.04 СВ 4-7
{10}
4000 м 8/8 600 м
[Sc]
+5.0 -4.4 51 +2 +2 1026.1 1002.2
00 17.04 СВ 4-8
{9}
4000 м 8/4 600 м
[Cb calv Ac trans]
+3.3 -5.0 54 -1 -1 1027.2 1003.1
03 17.04 СВ 3-7
{11}
20 км ясно -0.2 -7.0 60 -4 -4 1029.8 1005.2 -0.2
06 17.04 СВ 5-11
{11}
20 км ясно +1.6 -14.0 30 -3 +1 1031.7 1007.3
09 17.04 СВ 5-9
{11}
20 км ясно +5.4 -14.8 22 +2 +8 1031.7 1007.9
12 17.04 СВ 5-8
{10}
20 км ясно +6.8 -16.4 17 +4 +8 1031.3 1007.3
15 17.04 СВ 5-8
{10}
20 км ясно +6.1 -19.9 13 +3 +3 1031.2 1007.2 +7.7
18 17.04 СВ 2-3
{8}
4000 м ясно +1.7 -15.3 27 -0 -0 1031.4 1007.1
21 17.04 В 1-1
{3}
4000 м 8/0
[Ci fib]
-1.6 -16.2 32 -3 -3 1032.3 1007.6
00 18.04 ЮВ 2-2
{2}
4000 м ясно -6.0 -15.8 46 -10 -10 1033.6 1008.4
03 18.04 Ю 2-2
{2}
4000 м дымка ясно -6.3 -12.3 62 -10 -10 1033.0 1007.8 -7.8
06 18.04 Ю 2-3
{3}
10 км 10/0
[Ci sp]
+3.3 -10.0 37 +1 +7 1031.7 1007.5
09 18.04 В 3-4
{5}
20 км 10/0
[Ci sp]
+6.3 -14.6 21 +4 +12 1030.2 1006.3
12 18.04 СВ 2-4
{5}
20 км 10/0
[Ci sp]
+7.4 -14.4 20 +6 +12 1029.1 1005.3
15 18.04 СВ 2-3
{5}
20 км 10/0
[Ci sp]
+6.7 -14.3 21 +6 +6 1028.4 1004.5 +8.1
18 18.04 ЮВ 1-1
{3}
4000 м 10/0
[Ci sp]
+2.9 -13.9 28 +2 +2 1029.2 1005.0
21 18.04 штиль 0
{1}
4000 м 10/0
[Cs]
-0.7 -13.5 37 -1 -1 1029.9 1005.3
00 19.04 штиль 0
{1}
4000 м ясно -2.5 -12.4 46 -3 -3 1030.2 1005.5
03 19.04 штиль 0
{2}
10 км ясно -4.0 -10.8 59 -5 -4 1030.6 1005.7 -4.9
06 19.04 С 2-3
{3}
20 км ясно +5.9 -8.2 36 +4 +12 1030.1 1006.1
09 19.04 СВ 3-6
{8}
20 км ясно +10.0 -10.3 23 +9 +19 опасность
простуды
1029.1 1005.5
12 19.04 С 3-6
{7}
20 км ясно +10.9 -11.7 19 +10 +16 1027.9 1004.4
15 19.04 С 2-3
{6}
50 км ясно +10.1 -12.2 19 +9 +10 1027.1 1003.5 +11.2
18 19.04 Ю 2-3
{4}
4000 м ясно +3.0 -13.6 28 +1 +1 1027.8 1003.6
21 19.04 Ю 1-2
{3}
4000 м ясно -3.4 -10.8 57 -5 -5 1028.1 1003.3
00 20.04 ЮЗ 3-3
{3}
4000 м ясно -4.4 -11.4 58 -9 -9 1027.7 1002.8
03 20.04 ЮЗ 1-1
{3}
10 км ясно -1.2 -11.6 45 -3 -2 1026.8 1002.3 -5.0
06 20.04 СЗ 1-2
{3}
20 км ясно +9.6 -9.4 25 +10 +19 1026.3 1002.3
09 20.04 З 4-6
{8}
20 км 1/0
[Ac trans]
+12.8 -8.6 22 +12 +20 1025.1 1001.8
12 20.04 СЗ 3-6
{8}
20 км 4/0
[Ac trans Ci fib]
+14.5 -8.2 20 +14 +20 1024.2 1001.1
15 20.04 СЗ 2-3
{7}
20 км 4/0
[Ci fib]
+13.6 -6.4 24 +13 +14 1024.0 1000.8 +14.8
18 20.04 СВ 1-1
{3}
4000 м ясно +8.5 -3.0 44 +8 +8 1025.3 1001.7
21 20.04 Ю 2-2
{3}
4000 м ясно -0.2 -6.2 64 -3 -3 1026.7 1002.2
00 21.04 Ю 2-2
{3}
4000 м ясно -3.0 -6.4 77 -7 -7 1026.8 1002.2
03 21.04 штиль 0 10 км ясно +0.3 -7.6 55 -0 +1 1027.2 1002.8 -3.7
06 21.04 ЮВ 1-2
{2}
20 км ясно +10.5 -4.7 34 +11 +20 1026.8 1003.3
09 21.04 С 3-5
{7}
20 км ясно +14.7 -5.4 24 +14 +25 опасность
простуды
1026.5 1003.3
12 21.04 С 2-3
{9}
20 км 3/0
[Ci fib]
+15.9 -5.0 23 +16 +24 1025.8 1002.7
15 21.04 С 3-5
{6}
20 км 4/0
[Ci fib]
+15.1 -5.4 24 +15 +15 1024.9 1001.9 +16.6
18 21.04 С 1-2
{5}
4000 м ясно +10.0 -3.8 38 +10 +10 1025.8 1002.4
21 21.04 штиль 0
{3}
4000 м 3/0
[Ci fib]
+5.5 -4.4 49 +5 +5 1027.4 1003.4
00 22.04 штиль 0
{1}
4000 м ясно +1.7 -4.1 65 +1 +1 1027.8 1003.5
03 22.04 штиль 0
{2}
20 км 10/0
[Ci sp]
+0.6 -4.0 71 -0 +1 1028.3 1003.9 -1.0

 

Местоположение метеостанции Инсар (Мордовия, Россия): широта 53.87 долгота 44.38 высота над уровнем моря 193 м.

В архиве по умолчанию представлена погода в Инсаре за последнюю неделю. Архивные данные за месяц целиком и за предыдущие месяцы, начиная с января 2011 года, Вы можете получить, выбрав интересующий диапазон дат из раскрывающегося списка и нажав кнопку "Ввод!".


*Определитесь, кто Вы:
робот инопланетянин человек

Внимание! Время в таблицах - всемирное. Для получения местного времени необходимо прибавить поправку, которая равна 3 ч.

Смотрите также архив погоды в соседних городах и на ближайших метеорологических станциях:

Погода в Саранске (Мордовия, Россия) (64 км)
Погода в Краснослободске (Мордовия, Россия) (74 км)
Погода в Торбеево (Мордовия, Россия) (78 км)
Погода в Каменке (Пензенская область, Россия) (80 км)
Погода в Пачелме (Пензенская область, Россия) (92 км)
Погода в Пензе (Пензенская область, Россия) (94 км)
Погода в Городище (Пензенская область, Россия) (108 км)
Погода в Больших Березниках (Мордовия, Россия) (110 км)
Погода в Темникове (Мордовия, Россия) (113 км)
Погода в Белинском (Пензенская область, Россия) (119 км)

Пояснения к столбцам:

Ветер - указаны скорость ветра в м/с - средняя за 10 мин, порывы в срок и между сроками (в фигурных скобках) и направление, откуда дует ветер: С - северный, СВ - северо-восточный, В - восточный, ЮВ - юго-восточный, Ю - южный, ЮЗ - юго-западный, З - западный, СЗ - северо-западный.
Видимость - горизонтальная дальность видимости в метрах или километрах. При видимости от 1 до 10 км при отсутствии осадков обычно наблюдается дымка, при ухудшении видимости до 1 км и менее - туман. В сухую погоду видимость может ухудшаться дымом, пылью или мглою.
Явления - указаны атмосферные явления, наблюдавшиеся в срок или в последний час перед сроком; фигурными скобками обозначены явления, наблюдавшиеся между сроками (за 1-3 часа до срока); квадратными скобками обозначены град или гололедные отложения с указанием их диаметра в мм.
Облачность - указаны через наклонную черту общая и нижняя облачность в баллах и высота нижней границы облаков в метрах; квадратными скобками обозначены формы облаков: Ci - перистые, Cs - перисто-слоистые, Cc - перисто-кучевые, Ac - высококучевые, As - высокослоистые, Sc - слоисто-кучевые, Ns - слоисто-дождевые, Cu - кучевые, Cb - кучево-дождевые. Подробнее классификацию облаков см. в Атласе облаков (PDF).
T - Температура воздуха - температура, измеренная на высоте 2 м над землей.
Td - Температура точки росы - температура, при понижении до которой содержащийся в воздухе водяной пар достигнет насыщения.
f - Относительная влажность воздуха - влажноcть воздуха, измеренная на высоте 2 м над землей.
Te - Эффективная температура - температура, которую ощущает одетый по сезону человек в тени. Характеристика душности погоды. При расчете учитывается влияние влажности воздуха и скорости ветра на теплоощущения человека.
Tes - Эффективная температура на солнце - температура, которую ощущает человек, с поправкой на солнечный нагрев. Характеристика знойности погоды. Зависит от высоты солнца над горизонтом, облачности и скорости ветра. Ночью, в пасмурную погоду, а также при ветре 12 м/с и более поправка равна нулю.
P - Атмосферное давление - приведенное к уровню моря атмосферное давление.
Po - Атмосферное давление - измеренное на уровне метеостанции атмосферное давление.
Tmin - Минимальная температура - минимум температуры воздуха на высоте 2 м над землей.
Tmax - Максимальная температура - максимум температуры воздуха на высоте 2 м над землей.
R - Количество осадков - Количество выпавших осадков за период времени, мм. При наведении курсора мыши на число - период времени, за который выпало указанное количество осадков.
R24 - Количество осадков - Количество выпавших осадков за 24 часа, мм.
S - Снежный покров - Высота снежного покрова, см. При наведении курсора мыши на число - состояние снежного покрова и степень покрытия местности в баллах.